Simultaneous Nadir Overpasses (SNOs) Predictions

Prediction of SNOs between GOES-17 and NPP Satellite Orbit:

Table of predicted SNOs for the next 14.0 days since TLE Epoch: 8/10/2024
Index Date Time (GOES-17) GOES-17 Lat,Lon NPP Lat,Lon Distance(km) Time Diff (sec)
1 08/10/2024 08:27:08 -0.02,-104.70 0.12,-105.22 60.07 80
2 08/11/2024 08:05:44 -0.02,-104.70 -0.94,-100.71 456.20 80
3 08/12/2024 20:27:40 0.02,-104.71 -0.30,-106.00 147.65 80
4 08/13/2024 20:11:37 0.02,-104.71 0.77,-101.49 368.62 80
5 08/15/2024 08:33:24 -0.03,-104.70 0.43,-106.75 233.44 80
6 08/16/2024 08:12:00 -0.03,-104.70 -0.58,-102.22 282.37 80
7 08/17/2024 20:33:57 0.03,-104.70 -0.58,-107.53 322.35 80
8 08/18/2024 20:17:53 0.03,-104.70 0.44,-103.01 193.82 80
9 08/20/2024 08:39:40 -0.04,-104.69 0.74,-108.27 407.72 80
10 08/21/2024 08:18:14 -0.04,-104.69 -0.23,-103.73 108.48 80
11 08/22/2024 20:40:12 0.04,-104.69 -0.91,-109.05 496.07 80
12 08/23/2024 20:24:06 0.04,-104.69 0.06,-104.51 20.48 80
